User: anonymous   Login
Location: Friaudour
(46.0460°N, 1.2873°E)
Time: 13:28:22
(UTC+00:00)
Language:

Cosmos 972 Rocket - Orbit

View from above orbital plane
View from above orbital plane
View from above satellite
View from above satellite

Ground track
Ground track

The orbit data is extracted from the following two-line orbital elements,

1 10541U 77123B   20262.62872772 -.00000011 +00000-0 -41410-6 0  9994
2 10541 075.8376 032.9645 0299493 055.3229 307.5742 13.88966266165230
Epoch (UTC): 18 September 2020 15:05:22
Eccentricity: 0.0299493
inclination: 75.8376°
perigee height: 713 km
apogee height: 1151 km
right ascension of ascending node: 32.9645°
argument of perigee: 55.3229°
revolutions per day: 13.88966266
mean anomaly at epoch: 307.5742°
orbit number at epoch: 16523

The dashed part of the orbit path shows where the satellite is in the earth's shadow,  

DLR